TimeEST,TemperatureF,Dew PointF,Humidity,Sea Level PressureIn,VisibilityMPH,Wind Direction,Wind SpeedMPH,Gust SpeedMPH,PrecipitationIn,Events,Conditions,WindDirDegrees,DateUTC
1:53 AM,26.1,21.9,84,30.41,10.0,South,8.1,-,N/A,,Clear,180,2013-01-19 06:53:00
2:53 AM,28.9,23.0,78,30.40,10.0,SSW,10.4,-,N/A,,Clear,200,2013-01-19 07:53:00
3:53 AM,28.0,21.9,78,30.39,10.0,SSW,10.4,-,N/A,,Clear,200,2013-01-19 08:53:00
4:53 AM,27.0,21.9,81,30.37,10.0,South,10.4,-,N/A,,Clear,190,2013-01-19 09:53:00
5:53 AM,26.1,21.0,81,30.38,10.0,South,6.9,-,N/A,,Clear,190,2013-01-19 10:53:00
6:53 AM,28.0,21.9,78,30.37,10.0,SSW,11.5,-,N/A,,Clear,200,2013-01-19 11:53:00
7:53 AM,30.0,23.0,75,30.36,10.0,SSW,16.1,-,N/A,,Clear,210,2013-01-19 12:53:00
8:53 AM,33.1,25.0,72,30.36,10.0,South,10.4,-,N/A,,Clear,190,2013-01-19 13:53:00
9:53 AM,37.9,26.1,62,30.36,10.0,South,10.4,-,N/A,,Clear,190,2013-01-19 14:53:00
10:53 AM,43.0,26.1,51,30.33,10.0,South,10.4,-,N/A,,Clear,190,2013-01-19 15:53:00
11:53 AM,48.0,27.0,44,30.27,10.0,South,11.5,-,N/A,,Clear,190,2013-01-19 16:53:00
12:53 PM,48.9,28.0,44,30.23,10.0,SSE,10.4,-,N/A,,Clear,160,2013-01-19 17:53:00
1:53 PM,51.1,28.0,41,30.19,10.0,South,16.1,-,N/A,,Clear,180,2013-01-19 18:53:00
2:53 PM,51.1,28.0,41,30.16,10.0,South,15.0,-,N/A,,Clear,190,2013-01-19 19:53:00
3:53 PM,51.1,28.0,41,30.14,10.0,South,11.5,-,N/A,,Clear,190,2013-01-19 20:53:00
4:53 PM,48.0,28.0,46,30.13,10.0,SSW,11.5,-,N/A,,Clear,200,2013-01-19 21:53:00
5:53 PM,43.0,28.0,56,30.13,10.0,SSW,11.5,-,N/A,,Clear,200,2013-01-19 22:53:00
6:53 PM,44.1,28.9,55,30.12,10.0,SSW,13.8,-,N/A,,Clear,200,2013-01-19 23:53:00
7:53 PM,43.0,27.0,53,30.11,10.0,South,12.7,-,N/A,,Clear,190,2013-01-20 00:53:00
8:53 PM,41.0,26.1,55,30.10,10.0,SSW,8.1,-,N/A,,Clear,210,2013-01-20 01:53:00
9:53 PM,39.9,26.1,58,30.09,10.0,South,9.2,-,N/A,,Clear,190,2013-01-20 02:53:00
10:53 PM,39.0,26.1,60,30.05,10.0,South,9.2,-,N/A,,Clear,180,2013-01-20 03:53:00
11:53 PM,37.0,26.1,65,30.01,10.0,South,8.1,-,N/A,,Clear,190,2013-01-20 04:53:00